Regional Weather Roundup
Issued by NWS Bismarck, ND

Home | Current Version | Previous Version | Text Only | Print | Product List | Glossary On
Versions: 1 2 3 4 5 6 7 8 9 10 11 12 13 14 15 16 17 18 19 20 21 22 23 24 25 26 27 28 29 30 31 32 33 34 35 36 37 38 39 40 41 42 43 44 45 46 47 48 49 50
000
ASUS43 KBIS 280610
RWRBIS

NWR BROADCAST TEXT
NATIONAL WEATHER SERVICE BISMARCK ND
100 AM CDT SUN MAY 28 2017

NOTE: "FAIR" INDICATES FEW OR NO CLOUDS BELOW 12,000 FEET WITH NO
SIGNIFICANT WEATHER AND/OR OBSTRUCTIONS TO VISIBILITY.


CITY           SKY/WX    TMP DP  RH WIND       PRES   REMARKS
WILLISTON      FAIR      53  36  52 VRB5      29.93R
MINOT          FAIR      49  43  80 SW9       29.84S
MINOT AFB      CLOUDY    49  47  92 W9        29.83S
BISMARCK       FAIR      49  43  80 CALM      29.86F
DICKINSON      FAIR      48  39  71 NW9       29.92R
GARRISON         N/A     44  39  82 N5        29.85R
HETTINGER ARPT FAIR      48  40  73 NW8       29.96R
JAMESTOWN      FAIR      49  45  86 W9        29.81S
HAZEN          FAIR      43  41  93 CALM      29.88S
LINTON         FAIR      43  43 100 E3        29.88F
MANDAN         FAIR      48  43  81 W6        29.87S
STANLEY        FAIR      50  45  81 NW8       29.91S
TIOGA          FAIR      48  41  76 W6        29.92R
WATFORD CITY   FAIR      48  37  66 SW5       29.92R
$$

CITY           SKY/WX    TMP DP  RH WIND       PRES   REMARKS
GRAND FORKS    MOCLDY    53  49  86 NW10      29.73F
GRAND FORKS AF CLOUDY    52  50  93 NW9       29.73F
DEVILS LAKE    FAIR      48  45  89 W8        29.80S
FARGO          FAIR      52  45  77 W9        29.77R
CAVALIER       FAIR      50  48  93 W10       29.72F
GRAFTON        CLOUDY    55  48  76 NW14      29.74S
GWINNER        CLEAR     52  48  87 MISG      29.81R
LANGDON        FAIR      48  48 100 W10       29.77S
ROLLA          FAIR      50  43  76 NW13      29.80R
$$

CITY           SKY/WX    TMP DP  RH WIND       PRES   REMARKS
ABERDEEN       FAIR      53  45  74 NW9       29.84S
MOBRIDGE       FAIR      49  44  83 E3        29.86F
BUFFALO          N/A     51  44  77 W10       29.93F
RAPID CITY     FAIR      50  40  68 W9        30.04F
GLASGOW        CLOUDY    62  39  42 NW9       30.02R
SIDNEY         FAIR      53  39  59 NW9       29.95R
WOLF POINT     MOCLDY    60  38  43 N8        29.98R
GLENDIVE       FAIR      57  38  48 NW10      29.98R
MILES CITY     CLOUDY    61  34  36 W7        30.01R
BAKER          CLOUDY    56  39  53 W8        30.00R
$$

CITY           SKY/WX    TMP DP  RH WIND       PRES   REMARKS
BILLINGS       FAIR      60  37  42 W10       30.12S
GREAT FALLS    FAIR      51  42  71 S6        30.15R
REGINA         MOCLDY    46  34  61 NW7       29.93R
ESTEVAN        PTCLDY    46  43  87 W8        29.89R
$$




USA.gov is the U.S. government's official web portal to all federal, state and local government web resources and services.